[[{"header":{"parameterUnit":"m.s-1","parameterCategory":1,"la1":30.2991,"la2":30.254,"lo1":-89.0895,"lo2":-89.0444,"dy":0.0017,"dx":0.0017,"nx":28,"ny":28,"refTime":"2024-12-14T03:00:00:Z","depth":0,"parameterNumber":2,"parameterNumberName":"U-component_of_WINDS"},"data":[0,0,0,0,0,0,0,0,0,0,0,0,0,0,0,0,0,0,0,0,0,0,0,0,0,0,0,0,0,0,0,0,0,0,0,0,0,0,0,0,0,0,0,0,0,0,0,0,0,0,0,0,0,0,0,0,0,0,-6.1458,-6.1459,0,-6.1509,-6.1509,-6.151,-6.133,-6.1324,-6.1319,-6.1314,-6.1368,-6.1374,-6.138,0,0,0,0,0,0,0,0,0,0,0,0,0,-6.1207,-6.1213,-6.1458,-6.1459,-6.146,-6.1509,-6.1509,-6.151,-6.1331,-6.1324,-6.1317,-6.1311,-6.1366,-6.1373,-6.1381,0,0,0,0,0,0,0,0,0,0,0,0,0,-6.1293,-6.1215,-6.1458,-6.1376,-6.1369,-6.1509,-6.1509,-6.151,-6.1332,-6.1324,-6.1316,-6.1308,-6.1363,-6.1373,-6.1382,-6.1604,0,0,-6.1412,-6.1416,0,0,0,0,0,0,0,0,-6.1289,-6.1303,-6.1387,-6.1382,-6.1374,-6.1404,-6.144,-6.1542,-6.1334,-6.1346,-6.1314,-6.1304,-6.1387,-6.1394,-6.1421,-6.1607,-6.1609,-6.1413,-6.1419,-6.1423,-6.1425,0,0,0,0,0,0,0,-6.1283,-6.1299,-6.1478,-6.1389,-6.1381,-6.1337,-6.134,-6.1459,-6.1411,-6.1344,-6.1331,-6.134,-6.1382,-6.1412,-6.1421,-6.161,-6.1412,-6.1421,-6.1427,-6.1431,-6.1979,-6.1987,0,0,0,0,0,0,-6.1287,-6.1296,-6.1477,-6.148,-6.131,-6.1348,-6.1351,-6.1403,-6.1409,-6.1403,-6.1347,-6.1331,-6.14,-6.141,-6.1422,-6.1682,-6.1423,-6.1432,-6.1437,-6.197,-6.1981,-6.199,0,0,0,0,0,0,-6.1283,-6.1305,-6.1474,-6.1384,-6.1402,-6.1361,-6.142,-6.1408,-6.1439,-6.1411,-6.1402,-6.1387,-6.1394,-6.1409,-6.156,-6.1682,-6.1436,-6.1445,-6.196,-6.1973,-6.1985,-6.2205,0,0,0,0,0,0,-6.1276,-6.1305,-6.1389,-6.1387,-6.1408,-6.1612,-6.1428,-6.1415,-6.1456,-6.1436,-6.1446,-6.144,-6.1389,-6.1546,-6.157,-6.1691,-6.1453,-6.1949,-6.1966,-6.1981,-6.2186,-6.2224,-6.2255,0,0,0,0,0,-6.1268,-6.1449,-6.1394,-6.1417,-6.1512,-6.1619,-6.1631,-6.1567,-6.1466,-6.155,-6.1532,-6.144,-6.1665,-6.1563,-6.1588,-6.1714,-6.1941,-6.1961,-6.198,-6.2171,-6.2216,-6.2255,0,0,0,0,0,0,-6.1467,-6.1447,-6.1386,-6.1572,-6.1598,-6.1588,-6.1692,-6.1617,-6.1673,-6.1653,-6.1572,-6.1576,-6.1741,-6.1742,-6.163,-6.1928,-6.1785,-6.1811,-6.1922,-6.1965,-6.1999,-6.1995,-6.1461,0,0,0,0,0,-6.1532,-6.162,-6.1599,-6.1765,-6.1781,-6.1735,-6.1779,-6.1728,-6.1752,-6.1763,-6.1756,-6.1784,-6.186,-6.1912,-6.1981,-6.2185,-6.2185,-6.2284,-6.2318,-6.2347,-6.237,-6.2477,-6.2521,-6.2055,-6.2054,-6.2054,0,0,-6.1668,-6.1668,-6.1729,-6.1805,-6.1819,-6.1913,-6.1746,-6.1852,-6.1921,-6.1779,-6.1921,-6.1917,-6.1943,-6.2121,-6.2199,-6.2127,-6.2499,-6.2372,-6.2395,-6.2402,-6.2502,-6.2546,-6.2586,-6.2068,-6.2066,-6.2063,0,0,-6.1964,-6.1973,-6.2112,-6.213,-6.2153,-6.2121,-6.2155,-6.2156,-6.2148,-6.2289,-6.2184,-6.2265,-6.2399,-6.2421,-6.245,-6.2753,-6.267,-6.2778,-6.2959,-6.3064,-6.3101,-6.3133,-6.3242,-6.3281,-6.2801,-6.2801,-6.2802,0,-6.213,-6.2267,-6.2193,-6.2307,-6.2343,-6.2218,-6.2358,-6.2379,-6.2425,-6.2453,-6.237,-6.2535,-6.2543,-6.2725,-6.2799,-6.2826,-6.2862,-6.2777,-6.3102,-6.3133,-6.3162,-6.3264,-6.3305,-6.2814,-6.2813,-6.2812,-6.281,0,-6.247,-6.2566,-6.2676,-6.2722,-6.277,-6.2897,-6.2843,-6.2901,-6.2845,-6.2821,-6.2966,-6.2972,-6.3039,-6.3078,-6.3025,-6.3253,-6.3207,-6.3115,-6.297,-6.3221,-6.3315,-6.3354,-6.2833,-6.2828,-6.2824,-6.2821,0,0,-6.2894,-6.2896,-6.2938,-6.2957,-6.2973,-6.3046,-6.3167,-6.3232,-6.3283,-6.3319,-6.3418,-6.3533,-6.3447,-6.3481,-6.3428,-6.3521,-6.3761,-6.3417,-6.3416,-6.3481,-6.4012,-6.4082,-6.4128,-6.3706,-6.3713,-6.3718,-6.401,0,-6.3184,-6.3389,-6.3327,-6.3534,-6.3622,-6.3504,-6.3608,-6.363,-6.3612,-6.3683,-6.3662,-6.3746,-6.3626,-6.3645,-6.3732,-6.3714,-6.3867,-6.3692,-6.3798,-6.3802,-6.3795,-6.4177,-6.4252,-6.4526,-6.4046,-6.4052,-6.4057,0,-6.3551,-6.36,-6.3816,-6.3816,-6.3851,-6.3946,-6.4,-6.4071,-6.4092,-6.4072,-6.4109,-6.4037,-6.4155,-6.4009,-6.4171,-6.4054,-6.4093,-6.4091,-6.41,-6.4107,-6.3945,-6.4196,-6.4612,-6.4654,-6.4115,-6.411,-6.4106,0,-6.3838,-6.3958,-6.4102,-6.4122,-6.4127,-6.4197,-6.4202,-6.4215,-6.4258,-6.4306,-6.4333,-6.4394,-6.4428,-6.4477,-6.4424,-6.4322,-6.4594,-6.4443,-6.4581,-6.4583,-6.4644,-6.4641,-6.5073,-6.4669,-6.4669,-6.4668,-6.4667,0,-6.4169,-6.4306,-6.4231,-6.432,-6.447,-6.4396,-6.4547,-6.4538,-6.4552,-6.4637,-6.4539,-6.4621,-6.4545,-6.4621,-6.458,-6.472,-6.4737,-6.4724,-6.4711,-6.4733,-6.4735,-6.4758,-6.4738,-6.4679,-6.4676,-6.4674,-6.4672,0,-6.4516,-6.4471,-6.4621,-6.4612,-6.4613,-6.4724,-6.4717,-6.4799,-6.4772,-6.4882,-6.4903,-6.4863,-6.4946,-6.4898,-6.4984,-6.4956,-6.5139,-6.51,-6.5131,-6.5121,-6.5261,-6.5249,-6.5724,-6.5782,-6.5341,-6.5346,-6.5349,0,-6.473,-6.4833,-6.4835,-6.4885,-6.4896,-6.4978,-6.5021,-6.4952,-6.5001,-6.5033,-6.5112,-6.5187,-6.5243,-6.5382,-6.5361,-6.5426,-6.5388,-6.555,-6.5397,-6.5416,-6.5391,-6.5385,-6.5395,-6.5581,-6.5586,-6.559,-6.5594,0,-6.5116,-6.5088,-6.5154,-6.5212,-6.5266,-6.5308,-6.5343,-6.5389,-6.5321,-6.5381,-6.5465,-6.5509,-6.5595,-6.5672,-6.5727,-6.5732,-6.5653,-6.5642,-6.5677,-6.57,-6.5714,-6.5709,-6.5216,-6.5632,-6.5628,-6.5625,-6.5623,-6.5621,-6.5403,-6.5488,-6.5503,-6.5579,-6.5597,-6.5631,-6.5708,-6.5691,-6.5759,-6.5824,-6.5779,-6.5879,-6.5897,-6.5963,-6.5979,-6.6055,-6.599,-6.6041,-6.6054,-6.6068,-6.6087,-6.5702,-6.6065,-6.6064,-6.6063,-6.6062,-6.6061,0,-6.5783,-6.5786,-6.5857,-6.5908,-6.5968,-6.5886,-6.592,-6.5976,-6.6064,-6.6088,-6.6145,-6.6241,-6.6314,-6.6298,-6.6364,-6.6428,-6.6393,-6.6448,-6.6442,-6.6445,-6.6142,-6.6105,-6.6475,-6.6475,-6.6475,-6.6475,-6.6475,-6.6474,-6.5988,-6.6127,-6.6102,-6.6249,-6.6251,-6.6348,-6.6374,-6.6405,-6.6423,-6.6535,-6.6595,-6.6583,-6.6591,-6.6656,-6.6719,-6.6712,-6.6741,-6.681,-6.679,-6.6507,-6.6466,-6.6427,-6.6392,-6.6817,-6.6817,-6.7086,-6.7089,-6.7091]},{"header":{"parameterUnit":"m.s-1","parameterCategory":1,"la1":30.2991,"la2":30.254,"lo1":-89.0895,"lo2":-89.0444,"dy":0.0017,"dx":0.0017,"nx":28,"ny":28,"refTime":"2024-12-14T03:00:00:Z","depth":0,"parameterNumber":3,"parameterNumberName":"V-component_of_WINDS"},"data":[0,0,0,0,0,0,0,0,0,0,0,0,0,0,0,0,0,0,0,0,0,0,0,0,0,0,0,0,0,0,0,0,0,0,0,0,0,0,0,0,0,0,0,0,0,0,0,0,0,0,0,0,0,0,0,0,0,0,-1.4922,-1.4923,0,-1.4939,-1.4939,-1.4939,-1.4927,-1.4926,-1.4925,-1.4925,-1.4942,-1.4943,-1.4944,0,0,0,0,0,0,0,0,0,0,0,0,0,-1.4878,-1.4879,-1.4922,-1.4923,-1.4923,-1.4939,-1.4939,-1.4939,-1.4927,-1.4926,-1.4925,-1.4925,-1.4942,-1.4943,-1.4944,0,0,0,0,0,0,0,0,0,0,0,0,0,-1.4896,-1.4879,-1.4922,-1.4918,-1.4918,-1.4939,-1.4939,-1.494,-1.4927,-1.4926,-1.4925,-1.4924,-1.4941,-1.4943,-1.4944,-1.497,0,0,-1.4949,-1.4949,0,0,0,0,0,0,0,0,-1.4895,-1.4898,-1.4919,-1.4919,-1.4918,-1.493,-1.493,-1.495,-1.4927,-1.4924,-1.4925,-1.4924,-1.4939,-1.494,-1.4945,-1.4971,-1.4972,-1.4949,-1.495,-1.495,-1.4951,0,0,0,0,0,0,0,-1.4894,-1.4897,-1.4929,-1.4919,-1.4919,-1.4915,-1.4917,-1.4934,-1.4936,-1.4924,-1.4923,-1.4925,-1.4939,-1.4944,-1.4946,-1.4972,-1.4949,-1.495,-1.4951,-1.4952,-1.5017,-1.5018,0,0,0,0,0,0,-1.4893,-1.4896,-1.4928,-1.4929,-1.4905,-1.4917,-1.4919,-1.4927,-1.4935,-1.4936,-1.4926,-1.4924,-1.4942,-1.4944,-1.4946,-1.4976,-1.495,-1.4952,-1.4953,-1.5017,-1.5018,-1.5018,0,0,0,0,0,0,-1.4892,-1.4896,-1.4928,-1.4913,-1.4916,-1.4918,-1.4928,-1.4928,-1.4933,-1.4937,-1.4937,-1.4931,-1.4941,-1.4944,-1.4964,-1.4976,-1.4952,-1.4954,-1.5015,-1.5017,-1.5018,-1.5035,0,0,0,0,0,0,-1.4891,-1.4896,-1.4906,-1.4913,-1.4917,-1.4945,-1.4929,-1.4929,-1.4936,-1.4934,-1.4942,-1.4942,-1.4941,-1.4962,-1.4965,-1.4978,-1.4955,-1.5014,-1.5016,-1.5018,-1.5034,-1.5037,-1.504,0,0,0,0,0,-1.489,-1.4911,-1.4907,-1.4911,-1.493,-1.4946,-1.4949,-1.4946,-1.4937,-1.4947,-1.4949,-1.4942,-1.4974,-1.4964,-1.4968,-1.4981,-1.5014,-1.5016,-1.5017,-1.5032,-1.5036,-1.504,0,0,0,0,0,0,-1.4906,-1.4912,-1.4907,-1.4931,-1.4938,-1.4944,-1.4957,-1.4951,-1.4961,-1.4959,-1.4956,-1.4958,-1.4978,-1.4982,-1.497,-1.5005,-1.4992,-1.4995,-1.5002,-1.5006,-1.5009,-1.5008,-1.4956,0,0,0,0,0,-1.4912,-1.4925,-1.493,-1.495,-1.4954,-1.4955,-1.4962,-1.4959,-1.4966,-1.4969,-1.4973,-1.498,-1.4991,-1.4999,-1.501,-1.5034,-1.5035,-1.5045,-1.5048,-1.5051,-1.5053,-1.5064,-1.5068,-1.5025,-1.5025,-1.5025,0,0,-1.4926,-1.4931,-1.4939,-1.4954,-1.4959,-1.4972,-1.4957,-1.4972,-1.4981,-1.4972,-1.499,-1.4993,-1.5,-1.5022,-1.5031,-1.5025,-1.5065,-1.5053,-1.5055,-1.5056,-1.5067,-1.5071,-1.5075,-1.5026,-1.5026,-1.5026,0,0,-1.4957,-1.4962,-1.4979,-1.4984,-1.4992,-1.4992,-1.4996,-1.5002,-1.5003,-1.5022,-1.5014,-1.5025,-1.5045,-1.505,-1.5056,-1.5087,-1.508,-1.509,-1.5107,-1.5118,-1.5121,-1.5124,-1.5134,-1.5138,-1.5093,-1.5093,-1.5093,0,-1.4973,-1.4992,-1.4989,-1.5003,-1.5009,-1.5001,-1.5017,-1.5023,-1.5033,-1.5038,-1.503,-1.5054,-1.5059,-1.5081,-1.5088,-1.5093,-1.5097,-1.5089,-1.5121,-1.5124,-1.5127,-1.5136,-1.514,-1.5094,-1.5094,-1.5094,-1.5094,0,-1.501,-1.5023,-1.5036,-1.5046,-1.5054,-1.5069,-1.5068,-1.5076,-1.5073,-1.5073,-1.5091,-1.5096,-1.5107,-1.5112,-1.511,-1.5133,-1.5129,-1.5122,-1.5108,-1.5132,-1.5141,-1.5144,-1.5095,-1.5095,-1.5095,-1.5094,0,0,-1.5052,-1.5059,-1.5064,-1.5067,-1.5075,-1.5085,-1.5099,-1.511,-1.5116,-1.5123,-1.5135,-1.5152,-1.5144,-1.515,-1.5148,-1.5158,-1.518,-1.5149,-1.5149,-1.5153,-1.5205,-1.521,-1.5214,-1.5176,-1.5177,-1.5177,-1.5204,0,-1.5083,-1.5108,-1.5105,-1.5129,-1.514,-1.5131,-1.5144,-1.5149,-1.515,-1.5159,-1.516,-1.5171,-1.5162,-1.5165,-1.5174,-1.5175,-1.519,-1.5174,-1.5186,-1.5187,-1.5184,-1.5219,-1.5225,-1.525,-1.5208,-1.5208,-1.5209,0,-1.5121,-1.5129,-1.5154,-1.5158,-1.5162,-1.5174,-1.5182,-1.5192,-1.5197,-1.5196,-1.5202,-1.5198,-1.5212,-1.5199,-1.5217,-1.5206,-1.5211,-1.5212,-1.5213,-1.5213,-1.5199,-1.522,-1.5258,-1.5261,-1.5214,-1.5214,-1.5213,0,-1.5148,-1.5165,-1.5182,-1.5185,-1.519,-1.5198,-1.5201,-1.5205,-1.5211,-1.5218,-1.5222,-1.5231,-1.5236,-1.5243,-1.524,-1.5231,-1.5259,-1.5246,-1.5258,-1.5258,-1.5264,-1.5264,-1.5303,-1.5269,-1.5269,-1.5269,-1.5269,0,-1.5182,-1.5197,-1.5193,-1.5204,-1.522,-1.5216,-1.5232,-1.5234,-1.5238,-1.5247,-1.5241,-1.525,-1.5247,-1.5256,-1.5254,-1.5269,-1.5271,-1.5271,-1.527,-1.5271,-1.5271,-1.5274,-1.5272,-1.527,-1.5269,-1.5269,-1.5269,0,-1.5214,-1.5213,-1.523,-1.5233,-1.5234,-1.5246,-1.5248,-1.5257,-1.5257,-1.5269,-1.5272,-1.5271,-1.5281,-1.5279,-1.5291,-1.529,-1.5308,-1.5306,-1.5306,-1.5305,-1.5317,-1.5316,-1.5359,-1.5364,-1.5327,-1.5328,-1.5328,0,-1.5235,-1.5247,-1.525,-1.5256,-1.5259,-1.5269,-1.5274,-1.527,-1.5276,-1.5282,-1.529,-1.53,-1.5307,-1.5323,-1.5324,-1.5332,-1.5329,-1.5344,-1.5331,-1.5331,-1.5328,-1.5327,-1.5328,-1.5346,-1.5347,-1.5347,-1.5347,0,-1.5273,-1.5271,-1.5279,-1.5286,-1.5293,-1.5299,-1.5304,-1.5309,-1.5306,-1.5313,-1.5322,-1.5328,-1.5339,-1.5348,-1.5355,-1.5358,-1.5352,-1.5351,-1.5355,-1.5355,-1.5354,-1.5354,-1.5312,-1.535,-1.535,-1.535,-1.535,-1.535,-1.5299,-1.5308,-1.5311,-1.532,-1.5324,-1.5328,-1.5336,-1.5337,-1.5345,-1.5353,-1.535,-1.5361,-1.5365,-1.5374,-1.5377,-1.5385,-1.538,-1.5385,-1.5386,-1.5387,-1.5388,-1.5354,-1.5387,-1.5387,-1.5387,-1.5387,-1.5387,0,-1.5335,-1.5336,-1.5344,-1.5351,-1.5358,-1.5351,-1.5356,-1.5362,-1.5372,-1.5376,-1.5382,-1.5393,-1.5401,-1.5402,-1.541,-1.5416,-1.5413,-1.5418,-1.5417,-1.5418,-1.5393,-1.5389,-1.542,-1.542,-1.542,-1.542,-1.542,-1.542,-1.5354,-1.5368,-1.5367,-1.5382,-1.5383,-1.5394,-1.5397,-1.5401,-1.5404,-1.5415,-1.5422,-1.5422,-1.5425,-1.5432,-1.5439,-1.5439,-1.5442,-1.5448,-1.5446,-1.5423,-1.542,-1.5416,-1.5413,-1.5448,-1.5449,-1.5471,-1.5471,-1.5471]}]]